軌道要素
Epoch 2023 Feb. 25.0 TT = JDT 2460000.5
T 2023 Jan. 14.22168 TT Rudenko
q 1.3280278 (2000.0) P Q
z +0.0104307 Peri. 147.91002 -0.18795328 -0.76578458
+/-0.0000009 Node 304.47595 +0.66684824 +0.36023569
e 0.9861477 Incl. 48.24954 +0.72110123 -0.53273278
>From 1009 observations 2022 Oct. 25-2023 Apr. 9, mean residual 0".6.
|